[[{"header":{"parameterUnit":"m.s-1","parameterCategory":1,"la1":30.2991,"la2":30.254,"lo1":-89.0895,"lo2":-89.0444,"dy":0.0017,"dx":0.0017,"nx":28,"ny":28,"refTime":"2024-03-14T09:00:00:Z","depth":0,"parameterNumber":2,"parameterNumberName":"U-component_of_WINDS"},"data":[0,0,0,0,0,0,0,0,0,0,0,0,0,0,0,0,0,0,0,0,0,0,0,0,0,0,0,0,0,0,0,0,0,0,0,0,0,0,0,0,0,0,0,0,0,0,0,0,0,0,0,0,0,0,0,0,0,0,-2.2497,-2.2498,0,-2.259,-2.2591,-2.2592,-2.2627,-2.2627,-2.2627,-2.2626,-2.2725,-2.2728,-2.273,0,0,0,0,0,0,0,0,0,0,0,0,0,-2.2354,-2.2357,-2.2497,-2.2498,-2.25,-2.259,-2.2591,-2.2593,-2.2627,-2.2627,-2.2626,-2.2626,-2.2724,-2.2727,-2.2731,0,0,0,0,0,0,0,0,0,0,0,0,0,-2.2429,-2.2357,-2.2497,-2.2528,-2.2531,-2.259,-2.2591,-2.2593,-2.2627,-2.2627,-2.2626,-2.2626,-2.2723,-2.2727,-2.2731,-2.2767,0,0,-2.2744,-2.2746,0,0,0,0,0,0,0,0,-2.2424,-2.2434,-2.2522,-2.2526,-2.253,-2.2597,-2.2577,-2.2651,-2.2627,-2.2591,-2.2626,-2.2626,-2.2683,-2.269,-2.2709,-2.2772,-2.2776,-2.2745,-2.2747,-2.2749,-2.2751,0,0,0,0,0,0,0,-2.2419,-2.243,-2.2534,-2.2523,-2.2528,-2.2538,-2.2548,-2.2591,-2.2638,-2.2594,-2.2597,-2.2607,-2.2685,-2.2705,-2.2711,-2.2777,-2.2745,-2.2749,-2.2751,-2.2753,-2.2875,-2.2875,0,0,0,0,0,0,-2.2408,-2.2425,-2.2531,-2.2537,-2.2475,-2.2541,-2.2552,-2.2576,-2.2638,-2.2647,-2.2607,-2.2608,-2.2697,-2.2706,-2.2715,-2.2761,-2.2749,-2.2753,-2.2756,-2.2874,-2.2875,-2.2875,0,0,0,0,0,0,-2.2405,-2.2417,-2.2527,-2.2482,-2.2497,-2.2544,-2.257,-2.2578,-2.2597,-2.2648,-2.2657,-2.2619,-2.2697,-2.2709,-2.2754,-2.2765,-2.2755,-2.2759,-2.2873,-2.2874,-2.2875,-2.2853,0,0,0,0,0,0,-2.2401,-2.2416,-2.2429,-2.2482,-2.2499,-2.2563,-2.2571,-2.258,-2.2604,-2.2607,-2.2661,-2.2669,-2.2698,-2.2747,-2.2758,-2.2771,-2.2763,-2.2873,-2.2874,-2.2875,-2.2853,-2.2853,-2.2853,0,0,0,0,0,-2.2396,-2.242,-2.243,-2.2442,-2.2516,-2.2564,-2.2574,-2.2605,-2.2605,-2.2619,-2.2652,-2.2668,-2.2762,-2.2751,-2.2764,-2.2778,-2.2872,-2.2873,-2.2875,-2.2853,-2.2853,-2.2853,0,0,0,0,0,0,-2.2368,-2.2427,-2.2439,-2.2481,-2.2517,-2.257,-2.2588,-2.2604,-2.2642,-2.2642,-2.2681,-2.2693,-2.2734,-2.2761,-2.2748,-2.2816,-2.2818,-2.2822,-2.2797,-2.2798,-2.2798,-2.279,-2.2766,0,0,0,0,0,-2.2367,-2.2399,-2.245,-2.2482,-2.2499,-2.2541,-2.2563,-2.2583,-2.2623,-2.2639,-2.2675,-2.2713,-2.2752,-2.2776,-2.2815,-2.2857,-2.287,-2.2873,-2.2873,-2.2873,-2.2876,-2.2901,-2.2903,-2.288,-2.288,-2.288,0,0,-2.2365,-2.2401,-2.2419,-2.2477,-2.2508,-2.2542,-2.2553,-2.2589,-2.2615,-2.2645,-2.2688,-2.2716,-2.2762,-2.2806,-2.2827,-2.283,-2.2885,-2.2875,-2.2874,-2.2878,-2.2903,-2.2905,-2.2907,-2.2881,-2.2881,-2.2881,0,0,-2.2378,-2.2409,-2.2438,-2.2469,-2.2514,-2.2542,-2.2549,-2.2599,-2.2619,-2.2663,-2.2686,-2.2719,-2.2784,-2.2816,-2.284,-2.2866,-2.2882,-2.2878,-2.2878,-2.2902,-2.2904,-2.2906,-2.2915,-2.2918,-2.2881,-2.2881,-2.2881,0,-2.237,-2.242,-2.2452,-2.2486,-2.2511,-2.2539,-2.257,-2.2599,-2.2655,-2.2672,-2.2674,-2.2756,-2.2789,-2.2841,-2.2847,-2.2866,-2.2877,-2.2871,-2.2901,-2.2903,-2.2905,-2.2914,-2.2918,-2.288,-2.288,-2.288,-2.288,0,-2.2408,-2.2443,-2.2462,-2.2514,-2.2542,-2.2574,-2.2612,-2.2636,-2.2655,-2.2683,-2.2728,-2.2769,-2.2816,-2.283,-2.2849,-2.2884,-2.2884,-2.2893,-2.2896,-2.2906,-2.2915,-2.2919,-2.2878,-2.2879,-2.2879,-2.2879,0,0,-2.2406,-2.2475,-2.2482,-2.2506,-2.2558,-2.2587,-2.2621,-2.2666,-2.2686,-2.2724,-2.2754,-2.2809,-2.2817,-2.2845,-2.2869,-2.289,-2.2907,-2.2896,-2.2898,-2.2896,-2.2949,-2.2942,-2.2946,-2.2919,-2.292,-2.292,-2.2945,0,-2.2426,-2.2487,-2.2517,-2.2565,-2.2598,-2.2625,-2.2655,-2.2691,-2.2718,-2.2751,-2.2782,-2.282,-2.2828,-2.2845,-2.2867,-2.29,-2.2919,-2.2899,-2.2948,-2.2949,-2.2935,-2.2951,-2.2943,-2.2965,-2.2949,-2.295,-2.295,0,-2.2457,-2.2494,-2.2544,-2.2593,-2.2608,-2.2634,-2.2678,-2.2709,-2.2751,-2.2769,-2.2801,-2.2823,-2.2862,-2.2862,-2.2916,-2.2902,-2.2924,-2.2944,-2.2946,-2.2951,-2.295,-2.2956,-2.2972,-2.2975,-2.2957,-2.2956,-2.2956,0,-2.245,-2.2512,-2.2551,-2.2571,-2.2628,-2.2646,-2.2672,-2.2713,-2.2738,-2.2777,-2.2794,-2.2837,-2.2861,-2.2894,-2.2928,-2.2925,-2.2979,-2.2982,-2.2996,-2.2995,-2.3006,-2.3005,-2.3025,-2.3021,-2.3021,-2.3021,-2.3021,0,-2.2469,-2.2499,-2.2548,-2.2572,-2.2607,-2.2642,-2.2676,-2.2704,-2.274,-2.2771,-2.2798,-2.2826,-2.287,-2.2904,-2.2932,-2.2972,-2.2983,-2.3,-2.3006,-2.2997,-2.2995,-2.3011,-2.3011,-2.3022,-2.3021,-2.3021,-2.3021,0,-2.2467,-2.2501,-2.2544,-2.2595,-2.2609,-2.2632,-2.2677,-2.2702,-2.273,-2.2768,-2.2779,-2.2824,-2.2866,-2.2904,-2.296,-2.2978,-2.302,-2.3028,-2.3005,-2.3008,-2.302,-2.3018,-2.3052,-2.3058,-2.3049,-2.3049,-2.3049,0,-2.2476,-2.25,-2.2553,-2.2574,-2.2598,-2.2633,-2.2658,-2.2694,-2.272,-2.277,-2.2789,-2.2832,-2.2869,-2.2935,-2.2973,-2.3016,-2.3026,-2.3035,-2.3033,-2.3023,-2.3026,-2.3024,-2.3027,-2.3035,-2.3035,-2.3035,-2.3035,0,-2.2489,-2.2505,-2.2539,-2.258,-2.2609,-2.2643,-2.2678,-2.2695,-2.2738,-2.2765,-2.2807,-2.2836,-2.2892,-2.2935,-2.2983,-2.3011,-2.303,-2.3035,-2.304,-2.3031,-2.3016,-2.3024,-2.3004,-2.3034,-2.3034,-2.3034,-2.3034,-2.3034,-2.2493,-2.2515,-2.2555,-2.2593,-2.2623,-2.2655,-2.2681,-2.2712,-2.2747,-2.2795,-2.2815,-2.2858,-2.2901,-2.2966,-2.2994,-2.3029,-2.3033,-2.3041,-2.3043,-2.3044,-2.3042,-2.301,-2.3038,-2.3038,-2.3038,-2.3038,-2.3038,0,-2.2507,-2.2534,-2.2569,-2.2616,-2.2646,-2.266,-2.27,-2.2725,-2.2762,-2.2799,-2.2834,-2.2883,-2.2925,-2.2967,-2.3012,-2.3032,-2.3042,-2.3043,-2.3042,-2.3048,-2.3036,-2.3027,-2.3034,-2.3034,-2.3034,-2.3034,-2.3034,-2.3034,-2.2518,-2.2556,-2.2576,-2.263,-2.2658,-2.2699,-2.272,-2.2751,-2.2781,-2.2833,-2.2868,-2.2894,-2.2934,-2.2982,-2.3022,-2.3033,-2.3048,-2.3046,-2.306,-2.3049,-2.3048,-2.3048,-2.304,-2.3049,-2.3049,-2.3069,-2.3069,-2.3069]},{"header":{"parameterUnit":"m.s-1","parameterCategory":1,"la1":30.2991,"la2":30.254,"lo1":-89.0895,"lo2":-89.0444,"dy":0.0017,"dx":0.0017,"nx":28,"ny":28,"refTime":"2024-03-14T09:00:00:Z","depth":0,"parameterNumber":3,"parameterNumberName":"V-component_of_WINDS"},"data":[0,0,0,0,0,0,0,0,0,0,0,0,0,0,0,0,0,0,0,0,0,0,0,0,0,0,0,0,0,0,0,0,0,0,0,0,0,0,0,0,0,0,0,0,0,0,0,0,0,0,0,0,0,0,0,0,0,0,4.159,4.159,0,4.1671,4.1672,4.1673,4.1667,4.1666,4.1665,4.1663,4.1748,4.1751,4.1755,0,0,0,0,0,0,0,0,0,0,0,0,0,4.1432,4.1435,4.1589,4.159,4.1591,4.1671,4.1672,4.1673,4.1667,4.1666,4.1664,4.1663,4.1747,4.1751,4.1755,0,0,0,0,0,0,0,0,0,0,0,0,0,4.1505,4.1436,4.1589,4.1598,4.16,4.1671,4.1672,4.1673,4.1668,4.1666,4.1664,4.1662,4.1746,4.1751,4.1756,4.1824,0,0,4.1771,4.1773,0,0,0,0,0,0,0,0,4.1501,4.1511,4.1596,4.1598,4.1599,4.1657,4.1647,4.1724,4.1668,4.1642,4.1663,4.1661,4.1719,4.1727,4.1746,4.1828,4.1831,4.1772,4.1775,4.1777,4.1778,0,0,0,0,0,0,0,4.1496,4.1508,4.1622,4.1597,4.1599,4.1599,4.1607,4.1662,4.169,4.1644,4.1644,4.1653,4.172,4.1741,4.1748,4.1832,4.1772,4.1776,4.1779,4.1781,4.1978,4.198,0,0,0,0,0,0,4.1489,4.1503,4.1619,4.1624,4.1545,4.1603,4.1613,4.164,4.1689,4.1695,4.1655,4.1653,4.1733,4.1742,4.1751,4.1837,4.1777,4.1782,4.1785,4.1976,4.1978,4.1981,0,0,0,0,0,0,4.1485,4.1499,4.1616,4.1564,4.1579,4.1608,4.1639,4.1643,4.1664,4.1697,4.1703,4.1671,4.1732,4.1744,4.1806,4.1839,4.1784,4.1789,4.1973,4.1977,4.198,4.2007,0,0,0,0,0,0,4.1481,4.1498,4.1523,4.1564,4.1581,4.1669,4.1641,4.1646,4.1673,4.1671,4.1714,4.1719,4.1732,4.1799,4.1811,4.1845,4.1793,4.1971,4.1975,4.1979,4.2003,4.2011,4.2017,0,0,0,0,0,4.1475,4.1527,4.1524,4.1538,4.1614,4.1671,4.1681,4.1694,4.1675,4.1702,4.1724,4.1718,4.1833,4.1805,4.1819,4.1855,4.1969,4.1974,4.1978,4.2,4.2009,4.2017,0,0,0,0,0,0,4.1489,4.1532,4.153,4.1596,4.163,4.167,4.1704,4.1702,4.1742,4.1739,4.1753,4.1763,4.1827,4.1847,4.1815,4.1926,4.1899,4.1907,4.191,4.1919,4.1926,4.1921,4.1797,0,0,0,0,0,4.1499,4.1542,4.1578,4.1633,4.165,4.1674,4.1699,4.1706,4.1742,4.1756,4.1783,4.1818,4.1863,4.1892,4.1934,4.2005,4.2017,4.2037,4.2044,4.205,4.2057,4.21,4.2111,4.1997,4.1997,4.1997,0,0,4.1522,4.1551,4.1577,4.1637,4.1663,4.1709,4.1686,4.1734,4.1768,4.1764,4.1826,4.1846,4.1887,4.1955,4.1986,4.1974,4.2091,4.2056,4.206,4.2065,4.2106,4.2117,4.2127,4.2,4.2,4.1999,0,0,4.1587,4.1612,4.1662,4.169,4.1731,4.1747,4.1759,4.18,4.1814,4.1876,4.1874,4.1915,4.1991,4.2021,4.2046,4.2125,4.2122,4.2138,4.2175,4.2217,4.2226,4.2234,4.2265,4.2276,4.2145,4.2145,4.2145,0,4.161,4.1677,4.1688,4.1738,4.1765,4.1763,4.1816,4.1842,4.1895,4.1915,4.19,4.1997,4.2024,4.2101,4.2121,4.214,4.2156,4.2134,4.2223,4.2232,4.2239,4.227,4.2281,4.2147,4.2147,4.2146,4.2146,0,4.1705,4.1752,4.1788,4.184,4.1871,4.1922,4.1943,4.1973,4.1978,4.1996,4.2061,4.2093,4.2144,4.2162,4.2166,4.2241,4.2232,4.222,4.2194,4.2252,4.2281,4.2292,4.215,4.2149,4.2148,4.2148,0,0,4.1781,4.184,4.1853,4.1879,4.1925,4.1962,4.2013,4.2063,4.209,4.2127,4.2173,4.2237,4.2227,4.2256,4.2264,4.23,4.2365,4.2284,4.2285,4.2301,4.2453,4.2464,4.2477,4.2362,4.2365,4.2366,4.2451,0,4.1853,4.1944,4.1957,4.2038,4.2083,4.2083,4.2128,4.2162,4.2181,4.2223,4.2243,4.2291,4.2272,4.229,4.2325,4.2349,4.2396,4.2343,4.2407,4.241,4.24,4.2491,4.2503,4.2581,4.2462,4.2463,4.2465,0,4.1949,4.199,4.2076,4.2119,4.2138,4.2179,4.2227,4.2266,4.2306,4.2317,4.235,4.2354,4.241,4.2379,4.2458,4.2421,4.2448,4.2464,4.2468,4.2476,4.2443,4.2506,4.2605,4.2619,4.2482,4.2481,4.2479,0,4.2001,4.2077,4.2139,4.216,4.221,4.2239,4.2262,4.2299,4.2329,4.2372,4.2392,4.2439,4.2467,4.2504,4.2522,4.2498,4.26,4.2571,4.2614,4.2614,4.2637,4.2636,4.2746,4.2649,4.2649,4.2649,4.2649,0,4.2082,4.2135,4.2163,4.2202,4.2262,4.2277,4.2337,4.2358,4.2392,4.2437,4.2438,4.248,4.2499,4.2544,4.2558,4.2623,4.2634,4.2647,4.265,4.2648,4.2647,4.2668,4.2665,4.2652,4.2652,4.2651,4.265,0,4.215,4.217,4.2239,4.2281,4.2293,4.2337,4.2374,4.2412,4.243,4.2487,4.2501,4.253,4.2584,4.2604,4.2669,4.2679,4.2755,4.2752,4.2742,4.2744,4.2787,4.2784,4.2916,4.2936,4.2823,4.2824,4.2825,0,4.2202,4.2243,4.2291,4.2321,4.2344,4.2391,4.2423,4.2439,4.2471,4.2521,4.2554,4.2607,4.2651,4.2737,4.2765,4.2816,4.2817,4.286,4.2824,4.2822,4.2822,4.282,4.2826,4.2867,4.2868,4.2869,4.287,0,4.2293,4.2302,4.2346,4.2395,4.2432,4.2471,4.251,4.2534,4.2556,4.2593,4.2648,4.2682,4.2749,4.2803,4.2856,4.288,4.2881,4.288,4.2894,4.2894,4.2887,4.2895,4.2763,4.2878,4.2877,4.2877,4.2876,4.2876,4.2357,4.2395,4.2436,4.2486,4.2516,4.2553,4.2592,4.2616,4.2662,4.2718,4.2724,4.2784,4.2825,4.2896,4.2923,4.2971,4.296,4.2978,4.2983,4.2989,4.2994,4.2877,4.298,4.298,4.298,4.2979,4.2979,0,4.2452,4.2478,4.2524,4.2578,4.2618,4.2613,4.2656,4.2691,4.2743,4.2781,4.2824,4.2889,4.2942,4.2975,4.3028,4.3061,4.3063,4.3075,4.3074,4.3081,4.2998,4.2983,4.3073,4.3073,4.3073,4.3073,4.3073,4.3073,4.2506,4.2571,4.2585,4.2666,4.2692,4.2751,4.2776,4.281,4.2841,4.2913,4.2958,4.2978,4.3015,4.3072,4.3121,4.3129,4.3151,4.3165,4.3173,4.3096,4.3086,4.3077,4.3063,4.3168,4.3168,4.3252,4.3253,4.3253]}]]